sat.trackr.live / text

‹ back to catalog

STARLINK-31789

NORAD 59644 · 2024-082P

PAYLOAD ACTIVE UNKNOWN

§ Identity

Operator
Country
US
Launch date
2024-05-03
Launch site
AFETR
Launch vehicle
Mass (kg)
RCS (m²)

Purposes: comms

External: N2YO · Heavens-Above · Gunter

§ Orbital elements

Epoch: 2026-09-21T00:00:14.207616Z

Period
94.27 min
Inclination
43.0015°
Eccentricity
0.0001593
Mean motion
15.27587348 rev/d
Perigee alt
481.9 km
Apogee alt
484.1 km
Semi-major
6,861.2 km
B*
3.6552e-4
RAAN
116.6653°
Arg perigee
262.8058°
Mean anomaly
97.2613°
Rev number
13,488

§ Raw data

STARLINK-317891 59644U 24082P   26264.00016444  .00009812  00000+0  36552-3 0  99962 59644  43.0015 116.6653 0001593 262.8058  97.2613 15.27587348134882

JSON: /api/v1/satellites/59644 · /tle

For live sub-satellite position, see the globe view (requires WebGL).

§ Visibility from observer

Set your observer location to see the next 7 days of passes ≥ 10°. The values pass through the URL so the page stays shareable.

No JS? Fill the form by hand. The geolocation button needs JavaScript.